Weather Roundup
Issued by NWS

Home | Current Version | Previous Version | Text Only | Print | Product List | Glossary On
Versions: 1 2 3 4 5 6 7 8 9 10 11 12 13 14 15 16 17 18 19 20 21 22 23 24 25 26 27 28 29 30 31 32 33 34 35 36 37 38 39 40 41 42 43 44 45 46 47 48 49 50
536
NZUS93 KARX 251259
HRRWXR

CURRENT HOURLY OBSERVATIONS ACROSS
MUCH OF THE UPPER MISSISSIPPI VALLEY
NATIONAL WEATHER SERVICE LA CROSSE WI
800 AM CDT SUN JUN 25 2017


...SOUTHEAST MINNESOTA...


CITY           SKY/WX    TMP DP  RH WIND       PRES   REMARKS
ROCHESTER      CLOUDY    53  49  86 W14       30.14R
ROCHESTER/MAYO CLOUDY    54  48  81 W14G24    30.13R
WINONA         CLOUDY    55  50  82 NW9       30.11R
AUSTIN         CLOUDY    54  46  76 W14       30.16R
ALBERT LEA     CLOUDY    52  46  82 NW8G21    30.18R
DODGE CENTER   CLOUDY    52  46  82 W14       30.14R
PRESTON        CLOUDY    52  47  82 W15       30.14R
OWATONNA       CLOUDY    54  48  82 W14       30.16R
FARIBAULT      CLOUDY    54  48  82 W12       30.15R
$$

...ELSEWHERE IN MINNESOTA...


CITY           SKY/WX    TMP DP  RH WIND       PRES   REMARKS
MINNEAPOLIS    CLOUDY    56  48  74 NW13      30.12R
INTNL FALLS    HVY RAIN  50  48  93 NW9       30.10R FOG
DULUTH         CLOUDY    54  52  93 NW7       30.03R
RED WING       CLOUDY    57  46  67 NW8       30.10R
REDWOOD FALLS  MOSUNNY   54  42  64 NW15G24   30.21R
MANKATO        CLOUDY    52  45  77 NW15      30.18R
WORTHINGTON    SUNNY     53  42  66 NW17      30.27R
FAIRMONT       PTSUNNY   53  44  71 NW17G28   30.22R
$$

...SOUTHWEST WISCONSIN...


CITY           SKY/WX    TMP DP  RH WIND       PRES   REMARKS
LA CROSSE      CLOUDY    60  50  69 W10       30.10R
PRAIRIE DU CHI SUNNY     56  48  73 NW5       30.13R
BOSCOBEL       SUNNY     58  50  75 VRB6      30.12R
LONE ROCK      NOT AVBL
PLATTEVILLE    SUNNY     55  52  89 W9        30.13R
FORT MC COY    CLOUDY    51  50  96 W5        30.10R
CAMP DOUGLAS   PTSUNNY   54  50  87 W15G21    30.07R
MAUSTON-NEW LI PTSUNNY   55  50  83 W13G18    30.07R
VIROQUA        PTSUNNY   53  50  90 W8        30.10S
WIS DELLS      SUNNY     55  48  80 W10       30.08R
$$

...ELSEWHERE IN WISCONSIN...


CITY           SKY/WX    TMP DP  RH WIND       PRES   REMARKS
MILWAUKEE      MOSUNNY   59  50  72 W13       30.05R
MADISON        MOSUNNY   56  50  80 NW12G17   30.08R
GREEN BAY      PTSUNNY   57  53  86 NW13      29.99R
EAU CLAIRE     NOT AVBL
BLACK RVR FLS  CLOUDY    55  53  92 W9        30.08R
MEDFORD        CLOUDY    50  49  95 NW9       30.03S
WAUSAU         CLOUDY    54  50  86 W8        30.02R
WIS RAPIDS     MOSUNNY   54  49  83 NW12      30.06R
MARSHFIELD     CLOUDY    51  48  89 W12       30.05R
RICE LAKE      CLOUDY    54  50  87 W7        30.08R
$$

...NORTHEAST IOWA...


CITY           SKY/WX    TMP DP  RH WIND       PRES   REMARKS
WATERLOO       MOSUNNY   57  47  69 W10       30.18R
DUBUQUE        SUNNY     55  49  80 W10       30.15R
DECORAH        SUNNY     54  48  82 VRB7      30.13R
MASON CITY     CLOUDY    53  46  77 W14       30.21R
CHARLES CITY   CLOUDY    54  50  87 W15       30.18R
OELWEIN        SUNNY     55  50  82 NW17      30.18R
$$

...ELSEWHERE IN IOWA...


CITY           SKY/WX    TMP DP  RH WIND       PRES   REMARKS
DES MOINES     SUNNY     59  46  62 NW12      30.25R
IOWA CITY      MOSUNNY   58  47  66 NW9       30.20R
FORT DODGE     SUNNY     55  45  67 NW10G20   30.25R
MARSHALLTOWN   MOSUNNY   56  49  77 NW14      30.21R
CEDAR RAPIDS   CLOUDY    57  50  77 NW14      30.18R
$$

...NORTHERN ILLINOIS...


CITY           SKY/WX    TMP DP  RH WIND       PRES   REMARKS
CHICAGO-OHARE  MOSUNNY   60  49  66 W12       30.10R
CHICAGO-MIDWAY SUNNY     61  48  62 W15G21    30.10R
MOLINE         SUNNY     62  49  62 W10       30.17R
ROCKFORD       SUNNY     59  50  72 W13       30.13S
PEORIA         SUNNY     63  51  65 W5        30.17S
$$

NOTE: "FAIR" INDICATES FEW OR NO CLOUDS BELOW 12,000 FEET WITH NO
SIGNIFICANT WEATHER AND/OR OBSTRUCTIONS TO VISIBILITY. WIND
SPEEDS ARE IN MILES-PER-HOUR.




USA.gov is the U.S. government's official web portal to all federal, state and local government web resources and services.